Orbital Elements at Epoch 2459200.5 (2020-Dec-17.0) TDB
Reference: JPL 19 (heliocentric ecliptic J2000)
Element | Value | Uncertainty (1-sigma) | Units |
e | .1104475504079599 | 4.6496e-08 | |
a | 2.998224594960676 | 2.2094e-08 | au |
q | 2.667078032874371 | 1.4342e-07 | au |
i | 2.494114488487739 | 5.0532e-06 | deg |
node | 285.3274053889258 | 0.00011526 | deg |
peri | 81.4351285476953 | 0.00011816 | deg |
M | 59.52920703531687 | 2.3522e-05 | deg |
tp | 2458886.938836492046 (2020-Feb-07.43883649) | 0.00012411 | TDB |
period | 1896.245968737562 5.19 | 2.096e-05 5.739e-08 | d yr |
n | .189848788572335 | 2.0985e-09 | deg/d |
Q | 3.32937115704698 | 2.4534e-08 | au |
|
| | Orbit Determination Parameters
Additional Information
|